Time,TemperatureF,DewpointF,PressureIn,WindDirection,WindDirectionDegrees,WindSpeedMPH,WindSpeedGustMPH,Humidity,HourlyPrecipIn,Conditions,Clouds,dailyrainin,SoftwareType,DateUTC
2013-01-18 00:02:00,31.0,30.0,30.29,ENE,64,1.0,2.0,97,0.00,,,0.01,,2013-01-18 08:02:00,
2013-01-18 00:11:00,31.0,30.0,30.29,ENE,64,1.0,2.0,97,0.00,,,0.01,,2013-01-18 08:11:00,
2013-01-18 00:22:00,31.0,30.0,30.28,ESE,107,0.0,1.0,97,0.00,,,0.01,,2013-01-18 08:22:00,
2013-01-18 00:32:00,31.0,30.0,30.28,ESE,107,0.0,1.0,97,0.00,,,0.01,,2013-01-18 08:32:00,
2013-01-18 00:42:00,31.0,30.0,30.28,ESE,107,0.0,1.0,97,0.00,,,0.01,,2013-01-18 08:42:00,
2013-01-18 00:52:00,31.0,30.0,30.29,ENE,78,0.0,1.0,97,0.00,,,0.01,,2013-01-18 08:52:00,
2013-01-18 01:02:00,31.0,30.0,30.29,ENE,78,0.0,1.0,97,0.00,,,0.01,,2013-01-18 09:02:00,
2013-01-18 01:12:00,31.0,30.0,30.29,ENE,78,0.0,1.0,97,0.00,,,0.01,,2013-01-18 09:12:00,
2013-01-18 01:22:00,31.0,30.0,30.28,ENE,70,1.0,2.0,97,0.00,,,0.01,,2013-01-18 09:22:00,
2013-01-18 01:32:00,31.0,30.0,30.28,ENE,70,1.0,2.0,97,0.00,,,0.01,,2013-01-18 09:32:00,
2013-01-18 01:42:00,31.0,30.0,30.28,ENE,70,1.0,2.0,97,0.00,,,0.01,,2013-01-18 09:42:00,
2013-01-18 01:52:00,30.0,29.0,30.28,West,280,0.0,1.0,97,0.00,,,0.01,,2013-01-18 09:52:00,
2013-01-18 02:02:00,30.0,29.0,30.28,West,280,0.0,1.0,97,0.00,,,0.01,,2013-01-18 10:02:00,
2013-01-18 02:12:00,30.0,29.0,30.28,West,280,0.0,1.0,97,0.00,,,0.01,,2013-01-18 10:12:00,
2013-01-18 02:22:00,31.0,30.0,30.28,ENE,78,0.0,1.0,97,0.00,,,0.01,,2013-01-18 10:22:00,
2013-01-18 02:32:00,31.0,30.0,30.28,ENE,78,0.0,1.0,97,0.00,,,0.01,,2013-01-18 10:32:00,
2013-01-18 02:42:00,31.0,30.0,30.28,ENE,78,0.0,1.0,97,0.00,,,0.01,,2013-01-18 10:42:00,
2013-01-18 02:52:00,30.0,29.0,30.28,SE,143,0.0,1.0,97,0.00,,,0.01,,2013-01-18 10:52:00,
2013-01-18 03:02:00,30.0,29.0,30.28,SE,143,0.0,1.0,97,0.00,,,0.01,,2013-01-18 11:02:00,
2013-01-18 03:12:00,30.0,29.0,30.28,SE,143,0.0,1.0,97,0.00,,,0.01,,2013-01-18 11:12:00,
2013-01-18 03:22:00,30.0,29.0,30.28,East,88,0.0,1.0,97,0.00,,,0.01,,2013-01-18 11:22:00,
2013-01-18 03:32:00,30.0,29.0,30.28,East,88,0.0,1.0,97,0.00,,,0.01,,2013-01-18 11:32:00,
2013-01-18 03:42:00,30.0,29.0,30.28,East,88,0.0,1.0,97,0.00,,,0.01,,2013-01-18 11:42:00,
2013-01-18 03:52:00,30.0,29.0,30.28,WNW,300,0.0,0.0,97,0.00,,,0.01,,2013-01-18 11:52:00,
2013-01-18 04:02:00,30.0,29.0,30.28,WNW,300,0.0,0.0,97,0.00,,,0.01,,2013-01-18 12:02:00,
2013-01-18 04:12:00,30.0,29.0,30.28,WNW,300,0.0,0.0,97,0.00,,,0.01,,2013-01-18 12:12:00,
2013-01-18 04:22:00,30.0,29.0,30.27,West,279,0.0,2.0,97,0.00,,,0.01,,2013-01-18 12:22:00,
2013-01-18 04:32:00,30.0,29.0,30.27,West,279,0.0,2.0,97,0.00,,,0.01,,2013-01-18 12:32:00,
2013-01-18 04:42:00,30.0,29.0,30.27,West,279,0.0,2.0,97,0.00,,,0.01,,2013-01-18 12:42:00,
2013-01-18 04:52:00,30.0,29.0,30.27,SE,139,0.0,1.0,97,0.00,,,0.01,,2013-01-18 12:52:00,
2013-01-18 05:02:00,30.0,29.0,30.27,SE,139,0.0,1.0,97,0.00,,,0.01,,2013-01-18 13:02:00,
2013-01-18 05:12:00,30.0,29.0,30.27,SE,139,0.0,1.0,97,0.00,,,0.01,,2013-01-18 13:12:00,
2013-01-18 05:22:00,30.0,29.0,30.26,ENE,70,0.0,2.0,97,0.00,,,0.01,,2013-01-18 13:22:00,
2013-01-18 05:33:00,30.0,29.0,30.26,ENE,70,0.0,2.0,97,0.00,,,0.01,,2013-01-18 13:33:00,
2013-01-18 05:42:00,30.0,29.0,30.26,ENE,70,0.0,2.0,97,0.00,,,0.01,,2013-01-18 13:42:00,
2013-01-18 05:52:00,30.0,29.0,30.26,ESE,114,1.0,1.0,97,0.00,,,0.01,,2013-01-18 13:52:00,
2013-01-18 06:03:00,30.0,29.0,30.26,ESE,114,1.0,1.0,97,0.00,,,0.01,,2013-01-18 14:03:00,
2013-01-18 06:12:00,30.0,29.0,30.26,ESE,114,1.0,1.0,97,0.00,,,0.01,,2013-01-18 14:12:00,
2013-01-18 06:22:00,30.0,29.0,30.27,West,276,0.0,1.0,97,0.00,,,0.01,,2013-01-18 14:22:00,
2013-01-18 06:33:00,30.0,29.0,30.27,West,276,0.0,1.0,97,0.00,,,0.01,,2013-01-18 14:33:00,
2013-01-18 06:42:00,30.0,29.0,30.27,West,276,0.0,1.0,97,0.00,,,0.01,,2013-01-18 14:42:00,
2013-01-18 06:53:00,30.0,29.0,30.27,West,277,1.0,1.0,97,0.00,,,0.01,,2013-01-18 14:53:00,
2013-01-18 07:03:00,30.0,29.0,30.27,West,277,1.0,1.0,97,0.00,,,0.01,,2013-01-18 15:03:00,
2013-01-18 07:12:00,30.0,29.0,30.27,West,277,1.0,1.0,97,0.00,,,0.01,,2013-01-18 15:12:00,
2013-01-18 07:22:00,30.0,29.0,30.27,WSW,256,0.0,1.0,97,0.00,,,0.01,,2013-01-18 15:22:00,
2013-01-18 07:33:00,30.0,29.0,30.27,WSW,256,0.0,1.0,97,0.00,,,0.01,,2013-01-18 15:33:00,
2013-01-18 07:43:00,30.0,29.0,30.27,WSW,256,0.0,1.0,97,0.00,,,0.01,,2013-01-18 15:43:00,
2013-01-18 07:53:00,30.0,29.0,30.26,SE,127,0.0,2.0,97,0.00,,,0.01,,2013-01-18 15:53:00,
2013-01-18 08:03:00,30.0,29.0,30.26,SE,127,0.0,2.0,97,0.00,,,0.01,,2013-01-18 16:03:00,
2013-01-18 08:12:00,30.0,29.0,30.26,SE,127,0.0,2.0,97,0.00,,,0.01,,2013-01-18 16:12:00,
2013-01-18 08:22:00,30.0,29.0,30.27,ENE,78,1.0,1.0,97,0.00,,,0.01,,2013-01-18 16:22:00,
2013-01-18 08:33:00,30.0,29.0,30.27,ENE,78,1.0,1.0,97,0.00,,,0.01,,2013-01-18 16:33:00,
2013-01-18 08:42:00,30.0,29.0,30.27,ENE,78,1.0,1.0,97,0.00,,,0.01,,2013-01-18 16:42:00,
2013-01-18 08:52:00,29.0,28.0,30.27,East,101,0.0,1.0,97,0.00,,,0.01,,2013-01-18 16:52:00,
2013-01-18 09:02:00,29.0,28.0,30.27,East,101,0.0,1.0,97,0.00,,,0.01,,2013-01-18 17:02:00,
2013-01-18 09:12:00,29.0,28.0,30.27,East,101,0.0,1.0,97,0.00,,,0.01,,2013-01-18 17:12:00,
2013-01-18 09:22:00,30.0,29.0,30.28,East,101,0.0,0.0,97,0.00,,,0.01,,2013-01-18 17:22:00,
2013-01-18 09:33:00,30.0,29.0,30.28,East,101,0.0,0.0,97,0.00,,,0.01,,2013-01-18 17:33:00,
2013-01-18 09:42:00,30.0,29.0,30.28,East,101,0.0,0.0,97,0.00,,,0.01,,2013-01-18 17:42:00,
2013-01-18 09:53:00,31.0,30.0,30.30,ENE,64,0.0,1.0,97,0.00,,,0.01,,2013-01-18 17:53:00,
2013-01-18 10:03:00,31.0,30.0,30.30,ENE,64,0.0,1.0,97,0.00,,,0.01,,2013-01-18 18:03:00,
2013-01-18 10:12:00,31.0,30.0,30.30,ENE,64,0.0,1.0,97,0.00,,,0.01,,2013-01-18 18:12:00,
2013-01-18 10:22:00,31.0,30.0,30.31,East,81,0.0,1.0,97,0.00,,,0.01,,2013-01-18 18:22:00,
2013-01-18 10:33:00,31.0,30.0,30.31,East,81,0.0,1.0,97,0.00,,,0.01,,2013-01-18 18:33:00,
2013-01-18 10:43:00,31.0,30.0,30.31,East,81,0.0,1.0,97,0.00,,,0.01,,2013-01-18 18:43:00,
2013-01-18 10:52:00,31.0,30.0,30.30,East,83,2.0,3.0,97,0.00,,,0.01,,2013-01-18 18:52:00,
2013-01-18 11:02:00,31.0,30.0,30.30,East,83,2.0,3.0,97,0.00,,,0.01,,2013-01-18 19:02:00,
2013-01-18 11:12:00,31.0,30.0,30.30,East,83,2.0,3.0,97,0.00,,,0.01,,2013-01-18 19:12:00,
2013-01-18 11:22:00,31.0,30.0,30.30,NW,326,1.0,3.0,97,0.00,,,0.01,,2013-01-18 19:22:00,
2013-01-18 11:33:00,31.0,30.0,30.30,NW,326,1.0,3.0,97,0.00,,,0.01,,2013-01-18 19:33:00,
2013-01-18 11:42:00,31.0,30.0,30.30,NW,326,1.0,3.0,97,0.00,,,0.01,,2013-01-18 19:42:00,
2013-01-18 11:52:00,31.0,30.0,30.29,NNE,14,0.0,1.0,97,0.00,,,0.01,,2013-01-18 19:52:00,
2013-01-18 12:03:00,31.0,30.0,30.29,NNE,14,0.0,1.0,97,0.00,,,0.01,,2013-01-18 20:03:00,
2013-01-18 12:12:00,31.0,30.0,30.29,NNE,14,0.0,1.0,97,0.00,,,0.01,,2013-01-18 20:12:00,
2013-01-18 12:22:00,32.0,31.0,30.29,North,356,1.0,1.0,97,0.00,,,0.01,,2013-01-18 20:22:00,
2013-01-18 12:33:00,32.0,31.0,30.29,North,356,1.0,1.0,97,0.00,,,0.01,,2013-01-18 20:33:00,
2013-01-18 12:42:00,32.0,31.0,30.29,North,356,1.0,1.0,97,0.00,,,0.01,,2013-01-18 20:42:00,
2013-01-18 12:52:00,33.0,32.0,30.29,East,97,2.0,2.0,97,0.00,,,0.01,,2013-01-18 20:52:00,
2013-01-18 13:03:00,33.0,32.0,30.29,East,97,2.0,2.0,97,0.00,,,0.01,,2013-01-18 21:03:00,
2013-01-18 13:12:00,33.0,32.0,30.29,East,97,2.0,2.0,97,0.00,,,0.01,,2013-01-18 21:12:00,
2013-01-18 13:22:00,33.0,32.0,30.29,West,259,1.0,2.0,97,0.00,,,0.01,,2013-01-18 21:22:00,
2013-01-18 13:33:00,33.0,32.0,30.29,West,259,1.0,2.0,97,0.00,,,0.01,,2013-01-18 21:33:00,
2013-01-18 13:42:00,33.0,32.0,30.29,West,259,1.0,2.0,97,0.00,,,0.01,,2013-01-18 21:42:00,
2013-01-18 13:52:00,33.0,32.0,30.29,ESE,110,1.0,2.0,97,0.00,,,0.01,,2013-01-18 21:52:00,
2013-01-18 14:02:00,33.0,32.0,30.29,ESE,110,1.0,2.0,97,0.00,,,0.01,,2013-01-18 22:02:00,
2013-01-18 14:12:00,33.0,32.0,30.29,ESE,110,1.0,2.0,97,0.00,,,0.01,,2013-01-18 22:12:00,
2013-01-18 14:22:00,34.0,33.0,30.29,ESE,105,1.0,2.0,97,0.00,,,0.01,,2013-01-18 22:22:00,
2013-01-18 14:32:00,34.0,33.0,30.29,ESE,105,1.0,2.0,97,0.00,,,0.01,,2013-01-18 22:32:00,
2013-01-18 14:42:00,34.0,33.0,30.29,ESE,105,1.0,2.0,97,0.00,,,0.01,,2013-01-18 22:42:00,
2013-01-18 14:52:00,34.0,33.0,30.29,SE,134,0.0,2.0,97,0.00,,,0.01,,2013-01-18 22:52:00,
2013-01-18 15:02:00,34.0,33.0,30.29,SE,134,0.0,2.0,97,0.00,,,0.01,,2013-01-18 23:02:00,
2013-01-18 15:12:00,34.0,33.0,30.29,SE,134,0.0,2.0,97,0.00,,,0.01,,2013-01-18 23:12:00,
2013-01-18 15:22:00,34.0,33.0,30.29,NE,44,0.0,2.0,97,0.00,,,0.01,,2013-01-18 23:22:00,
2013-01-18 15:32:00,34.0,33.0,30.29,NE,44,0.0,2.0,97,0.00,,,0.01,,2013-01-18 23:32:00,
2013-01-18 15:42:00,34.0,33.0,30.29,NE,44,0.0,2.0,97,0.00,,,0.01,,2013-01-18 23:42:00,
2013-01-18 15:52:00,34.0,33.0,30.29,East,101,1.0,2.0,97,0.00,,,0.00,,2013-01-18 23:52:00,
2013-01-18 16:02:00,34.0,33.0,30.29,East,101,1.0,2.0,97,0.00,,,0.00,,2013-01-19 00:02:00,
2013-01-18 16:12:00,34.0,33.0,30.29,East,101,1.0,2.0,97,0.00,,,0.00,,2013-01-19 00:12:00,
2013-01-18 16:22:00,34.0,33.0,30.29,WSW,255,1.0,1.0,97,0.00,,,0.00,,2013-01-19 00:22:00,
2013-01-18 16:32:00,34.0,33.0,30.29,WSW,255,1.0,1.0,97,0.00,,,0.00,,2013-01-19 00:32:00,
2013-01-18 16:42:00,34.0,33.0,30.29,WSW,255,1.0,1.0,97,0.00,,,0.00,,2013-01-19 00:42:00,
2013-01-18 16:52:00,34.0,33.0,30.30,East,86,0.0,2.0,97,0.00,,,0.00,,2013-01-19 00:52:00,
2013-01-18 17:02:00,34.0,33.0,30.30,East,86,0.0,2.0,97,0.00,,,0.00,,2013-01-19 01:02:00,
2013-01-18 17:12:00,34.0,33.0,30.30,East,86,0.0,2.0,97,0.00,,,0.00,,2013-01-19 01:12:00,
2013-01-18 17:22:00,34.0,33.0,30.29,WNW,285,1.0,2.0,97,0.00,,,0.00,,2013-01-19 01:22:00,
2013-01-18 17:32:00,34.0,33.0,30.29,WNW,285,1.0,2.0,97,0.00,,,0.00,,2013-01-19 01:32:00,
2013-01-18 17:42:00,34.0,33.0,30.29,WNW,285,1.0,2.0,97,0.00,,,0.00,,2013-01-19 01:42:00,
2013-01-18 17:52:00,34.0,33.0,30.29,WNW,300,0.0,1.0,97,0.00,,,0.00,,2013-01-19 01:52:00,
2013-01-18 18:02:00,34.0,33.0,30.29,WNW,300,0.0,1.0,97,0.00,,,0.00,,2013-01-19 02:02:00,
2013-01-18 18:12:00,34.0,33.0,30.29,WNW,300,0.0,1.0,97,0.00,,,0.00,,2013-01-19 02:12:00,
2013-01-18 18:22:00,34.0,33.0,30.30,NW,315,1.0,2.0,97,0.00,,,0.00,,2013-01-19 02:22:00,
2013-01-18 18:32:00,34.0,33.0,30.30,NW,315,1.0,2.0,97,0.00,,,0.00,,2013-01-19 02:32:00,
2013-01-18 18:42:00,34.0,33.0,30.30,NW,315,1.0,2.0,97,0.00,,,0.00,,2013-01-19 02:42:00,
2013-01-18 18:52:00,33.0,32.0,30.30,WNW,285,1.0,2.0,97,0.00,,,0.00,,2013-01-19 02:52:00,
2013-01-18 19:02:00,33.0,32.0,30.30,WNW,285,1.0,2.0,97,0.00,,,0.00,,2013-01-19 03:02:00,
2013-01-18 19:12:00,33.0,32.0,30.30,WNW,285,1.0,2.0,97,0.00,,,0.00,,2013-01-19 03:12:00,
2013-01-18 19:22:00,33.0,32.0,30.30,WNW,285,0.0,1.0,97,0.00,,,0.00,,2013-01-19 03:22:00,
2013-01-18 19:32:00,33.0,32.0,30.30,WNW,285,0.0,1.0,97,0.00,,,0.00,,2013-01-19 03:32:00,
2013-01-18 19:42:00,33.0,32.0,30.30,WNW,285,0.0,1.0,97,0.00,,,0.00,,2013-01-19 03:42:00,
2013-01-18 19:52:00,33.0,32.0,30.30,ENE,70,0.0,1.0,97,0.00,,,0.00,,2013-01-19 03:52:00,
2013-01-18 20:02:00,33.0,32.0,30.30,ENE,70,0.0,1.0,97,0.00,,,0.00,,2013-01-19 04:02:00,
2013-01-18 20:12:00,33.0,32.0,30.30,ENE,70,0.0,1.0,97,0.00,,,0.00,,2013-01-19 04:12:00,
2013-01-18 20:22:00,33.0,32.0,30.30,ESE,115,1.0,1.0,97,0.00,,,0.00,,2013-01-19 04:22:00,
2013-01-18 20:32:00,33.0,32.0,30.30,ESE,115,1.0,1.0,97,0.00,,,0.00,,2013-01-19 04:32:00,
2013-01-18 20:42:00,33.0,32.0,30.30,ESE,115,1.0,1.0,97,0.00,,,0.00,,2013-01-19 04:42:00,
2013-01-18 20:52:00,32.0,31.0,30.31,NNE,26,1.0,1.0,97,0.00,,,0.00,,2013-01-19 04:52:00,
2013-01-18 21:03:00,32.0,31.0,30.31,NNE,26,1.0,1.0,97,0.00,,,0.00,,2013-01-19 05:03:00,
2013-01-18 21:12:00,32.0,31.0,30.31,NNE,26,1.0,1.0,97,0.00,,,0.00,,2013-01-19 05:12:00,
2013-01-18 21:22:00,32.0,31.0,30.32,SSW,210,0.0,2.0,97,0.00,,,0.00,,2013-01-19 05:22:00,
2013-01-18 21:32:00,32.0,31.0,30.32,SSW,210,0.0,2.0,97,0.00,,,0.00,,2013-01-19 05:32:00,
2013-01-18 21:42:00,32.0,31.0,30.32,SSW,210,0.0,2.0,97,0.00,,,0.00,,2013-01-19 05:42:00,
2013-01-18 21:52:00,32.0,31.0,30.33,WNW,293,0.0,1.0,97,0.00,,,0.00,,2013-01-19 05:52:00,
2013-01-18 22:02:00,32.0,31.0,30.33,WNW,293,0.0,1.0,97,0.00,,,0.00,,2013-01-19 06:02:00,
2013-01-18 22:12:00,32.0,31.0,30.33,WNW,293,0.0,1.0,97,0.00,,,0.00,,2013-01-19 06:12:00,
2013-01-18 22:22:00,32.0,31.0,30.33,ENE,71,1.0,2.0,97,0.00,,,0.00,,2013-01-19 06:22:00,
2013-01-18 22:32:00,32.0,31.0,30.33,ENE,71,1.0,2.0,97,0.00,,,0.00,,2013-01-19 06:32:00,
2013-01-18 22:42:00,32.0,31.0,30.33,ENE,71,1.0,2.0,97,0.00,,,0.00,,2013-01-19 06:42:00,
2013-01-18 22:52:00,32.0,31.0,30.33,NNW,337,0.0,1.0,97,0.00,,,0.00,,2013-01-19 06:52:00,
2013-01-18 23:02:00,32.0,31.0,30.33,NNW,337,0.0,1.0,97,0.00,,,0.00,,2013-01-19 07:02:00,
2013-01-18 23:12:00,32.0,31.0,30.33,NNW,337,0.0,1.0,97,0.00,,,0.00,,2013-01-19 07:12:00,
2013-01-18 23:22:00,32.0,31.0,30.33,ESE,103,0.0,1.0,97,0.00,,,0.00,,2013-01-19 07:22:00,
2013-01-18 23:32:00,32.0,31.0,30.33,ESE,103,0.0,1.0,97,0.00,,,0.00,,2013-01-19 07:32:00,
2013-01-18 23:42:00,32.0,31.0,30.33,ESE,103,0.0,1.0,97,0.00,,,0.00,,2013-01-19 07:42:00,
2013-01-18 23:52:00,32.0,31.0,30.33,NW,308,0.0,1.0,97,0.00,,,0.00,,2013-01-19 07:52:00,